Home   Weather   Neenah   Past weeks

Flag for USA Past Weather in Neenah, Wisconsin, USA — Yesterday and Last 2 Weeks

Now
39 °F

Drizzle. Low clouds.


Feels Like: 31 °F
Forecast: 38 / 41 °F
Wind: 14 mph from Northeast

Location: Appleton / Outagamie

Current Time: Apr 30, 2017 at 1:40:29 pm

Latest Report: Apr 30, 2017 at 12:45 pm


Visibility: 2 mi

Pressure: 29.97 "Hg

Humidity: 100%

Dew Point: 39 °F

Location of NeenahLocation

Past Weather in Neenah — Graph

°F

Neenah Temperature Yesterday

Maximum temperature yesterday: 46 °F (at 2:45 pm)
Minimum temperature yesterday: 32 °F (at 5:15 am)
Average temperature yesterday: 41 °F

High & Low Weather Summary for the Past Weeks

 TemperatureHumidityPressure
High73 °F (Apr 25, 1:45 pm)100% (Apr 15, 11:55 pm)30.36 "Hg (Apr 15, 11:55 pm)
Low32 °F (Apr 29, 5:15 am)20% (Apr 22, 3:45 pm)29.29 "Hg (Apr 27, 7:45 am)
Average48 °F68%29.91 "Hg
* Reported Apr 15 11:45 am — Apr 30 11:45 am, Neenah, Weather by CustomWeather, © 2017

Note: Actual official high and low records may vary slightly from our data, if they occured in-between our weather recording intervals... More about our weather records

Advertising

Neenah Weather History for the Previous 24 Hours

Scroll right to see more
 ConditionsComfort  
Time TempWeatherWind HumidityBarometerVisibility
11:45 am
Sun, Apr 30
39 °FFog.18 mph100%29.99 "Hg6 mi
10:45 am39 °FFog.18 mph93%29.97 "Hg6 mi
9:45 am39 °FFog.20 mph93%29.97 "Hg2 mi
8:45 am39 °FFog.20 mph93%29.99 "Hg2 mi
7:45 am39 °FFog.17 mph93%30.01 "Hg2 mi
7:25 am39 °FFog.16 mph93%30.01 "Hg2 mi
7:05 am39 °FFog.18 mph87%30.04 "Hg4 mi
6:45 am39 °FMostly cloudy.15 mph81%30.05 "Hg10 mi
5:45 am39 °FOvercast.13 mph81%30.07 "Hg10 mi
5:20 am39 °FOvercast.13 mph87%30.07 "Hg10 mi
4:55 am37 °FOvercast.12 mph93%30.08 "Hg7 mi
4:35 am37 °FLight rain. Overcast.12 mph93%30.08 "Hg10 mi
4:15 am37 °FOvercast.12 mph93%30.08 "Hg10 mi
3:55 am37 °FOvercast.15 mph87%30.08 "Hg7 mi
3:35 am37 °FMostly cloudy.16 mph87%30.09 "Hg10 mi
3:15 am37 °FLight rain. Overcast.13 mph87%30.09 "Hg10 mi
2:55 am37 °FOvercast.15 mph87%30.10 "Hg10 mi
2:35 am37 °FOvercast.14 mph81%30.14 "Hg10 mi
2:15 am37 °FOvercast.14 mph81%30.15 "Hg10 mi
1:55 am37 °FLight rain. Overcast.12 mph81%30.15 "Hg5 mi
1:35 am39 °FDrizzle. Mostly cloudy.9 mph75%30.17 "Hg7 mi
1:15 am41 °FOvercast.12 mph66%30.17 "Hg10 mi
12:55 am41 °FOvercast.12 mph66%30.14 "Hg10 mi
12:35 am41 °FOvercast.14 mph66%30.13 "Hg10 mi
12:15 am41 °FOvercast.15 mph66%30.12 "Hg10 mi
11:55 pm
Sat, Apr 29
43 °FOvercast.14 mph53%30.11 "Hg10 mi
11:35 pm43 °FOvercast.16 mph46%30.14 "Hg10 mi
10:45 pm45 °FOvercast.17 mph42%30.16 "Hg10 mi
9:45 pm45 °FOvercast.18 mph39%30.18 "Hg10 mi
8:45 pm45 °FPassing clouds.17 mph46%30.17 "Hg10 mi
7:45 pm45 °FPartly sunny.13 mph49%30.21 "Hg10 mi
6:45 pm45 °FOvercast.14 mph49%30.23 "Hg10 mi
5:45 pm46 °FOvercast.14 mph43%30.23 "Hg10 mi
4:45 pm45 °FOvercast.18 mph46%30.21 "Hg10 mi
3:45 pm46 °FOvercast.16 mph40%30.26 "Hg10 mi
2:45 pm46 °FMore clouds than sun.20 mph43%30.27 "Hg10 mi
1:45 pm45 °FMore clouds than sun.12 mph46%30.29 "Hg10 mi
Weather by CustomWeather, © 2017

See weather overviewHow to use our weather pages